Location: Peach Mountain Observatory
(42.3967°N, 83.9367°W)
Time: 00:41:54
(UTC-04:00)

deb Explorer IX - Pass Details

Date: 26 January 2020
Orbit: 547 x 1100 km, 38.8° (Epoch: 04 April)

Event Time Altitude Azimuth Distance (km) Brightness Sun altitude
Rises 00:41:11 0° 267° (W) 3,862 - -66.4°
Reaches altitude 10° 00:43:55 10° 265° (W) 2,935 - -66.4°
Maximum altitude 00:51:08 66° 185° (S) 1,187 - -66.4°
Drops below altitude 10° 00:58:11 10° 105° (ESE) 2,865 - -66.3°
Sets 01:00:49 0° 103° (ESE) 3,766 - -66.3°
